Tracking 20621 objects as of 29-Mar-2020
HD Live streaming from Space Station
objects crossing your sky now

MOLNIYA 2-14

Track MOLNIYA 2-14 now!
MOLNIYA 2-14 is classified as:


NORAD ID: 8195
Int'l Code: 1975-081A
Perigee: 701.8 km
Apogee: 39,405.2 km
Inclination: 63.1 °
Period: 712.5 minutes
Semi major axis: 26424 km
RCS: 17.1549 m2 (large)
Launch date: September 9, 1975
Source: Commonwealth of Independent States (former USSR) (CIS)
Launch site: PLESETSK MISSILE AND SPACE COMPLEX (PKMTR)
aabbcc
Your satellite tracking list
Your tracking list is empty




NASA's NSSDC Master Catalog

Two Line Element Set (TLE):
1  8195U 75081A   20088.60759891 -.00000665 +00000-0 -40506-2 0  9993
2  8195 063.0505 290.5345 7323397 292.5729 008.6960 02.02112194326521
Source of the keplerian elements: AFSPC